iso_date,epoch_date,Year,Hour,Min,DOY,POS_DOY,Lat,Lon,BP,Ts,Ta,has_bp,has_ts,has_ta,BuoyID,Buoy_Type,Buoy_Owner,Logistics,Hemisphere
2021-01-13T09:00:00Z,1610528400,2021,9,0,13.375,13.375,-57.991,-61.188,1003.9,4.25,-999.0,yes,yes,no,300234067173120,BD2GI,AOML,ARAON,South
2021-01-13T10:00:02Z,1610532003,2021,10,0,13.4167,13.4167,-57.982,-61.151,1003.9,4.25,-999.0,yes,yes,no,300234067173120,BD2GI,AOML,ARAON,South
2021-01-13T10:59:57Z,1610535597,2021,11,0,13.4583,13.4583,-57.973,-61.114,1003.8,4.26,-999.0,yes,yes,no,300234067173120,BD2GI,AOML,ARAON,South
2021-01-13T12:00:00Z,1610539200,2021,12,0,13.5,13.5,-57.967,-61.077,1003.9,4.27,-999.0,yes,yes,no,300234067173120,BD2GI,AOML,ARAON,South
2021-01-13T13:00:02Z,1610542803,2021,13,0,13.5417,13.5417,-57.962,-61.042,1003.6,4.28,-999.0,yes,yes,no,300234067173120,BD2GI,AOML,ARAON,South
2021-01-13T13:59:57Z,1610546397,2021,14,0,13.5833,13.5833,-57.956,-61.005,1003.3,4.29,-999.0,yes,yes,no,300234067173120,BD2GI,AOML,ARAON,South
2021-01-13T15:00:00Z,1610550000,2021,15,0,13.625,13.625,-57.953,-60.969,1003.1,4.31,-999.0,yes,yes,no,300234067173120,BD2GI,AOML,ARAON,South
2021-01-13T16:00:02Z,1610553603,2021,16,0,13.6667,13.6667,-57.95,-60.931,1002.7,4.3,-999.0,yes,yes,no,300234067173120,BD2GI,AOML,ARAON,South
2021-01-13T16:59:57Z,1610557197,2021,17,0,13.7083,13.7083,-57.947,-60.892,1001.9,4.31,-999.0,yes,yes,no,300234067173120,BD2GI,AOML,ARAON,South
2021-01-13T18:00:00Z,1610560800,2021,18,0,13.75,13.75,-57.947,-60.85,1001.0,4.31,-999.0,yes,yes,no,300234067173120,BD2GI,AOML,ARAON,South
2021-01-13T19:00:02Z,1610564403,2021,19,0,13.7917,13.7917,-57.947,-60.801,1000.3,4.32,-999.0,yes,yes,no,300234067173120,BD2GI,AOML,ARAON,South
2021-01-13T19:59:57Z,1610567997,2021,20,0,13.8333,13.8333,-57.945,-60.747,999.4,4.3,-999.0,yes,yes,no,300234067173120,BD2GI,AOML,ARAON,South
2021-01-13T21:00:00Z,1610571600,2021,21,0,13.875,13.875,-57.941,-60.691,998.6,4.29,-999.0,yes,yes,no,300234067173120,BD2GI,AOML,ARAON,South
2021-01-13T22:00:02Z,1610575203,2021,22,0,13.9167,13.9167,-57.935,-60.636,997.8,4.28,-999.0,yes,yes,no,300234067173120,BD2GI,AOML,ARAON,South
2021-01-13T22:59:57Z,1610578797,2021,23,0,13.9583,13.9583,-57.927,-60.586,997.6,4.27,-999.0,yes,yes,no,300234067173120,BD2GI,AOML,ARAON,South
2021-01-14T00:00:00Z,1610582400,2021,0,0,14.0,14.0,-57.918,-60.536,997.6,4.27,-999.0,yes,yes,no,300234067173120,BD2GI,AOML,ARAON,South
2021-01-14T01:00:02Z,1610586003,2021,1,0,14.0417,14.0417,-57.908,-60.493,998.3,4.27,-999.0,yes,yes,no,300234067173120,BD2GI,AOML,ARAON,South
2021-01-14T01:59:57Z,1610589597,2021,2,0,14.0833,14.0833,-57.901,-60.457,998.8,4.25,-999.0,yes,yes,no,300234067173120,BD2GI,AOML,ARAON,South
2021-01-14T03:00:00Z,1610593200,2021,3,0,14.125,14.125,-57.897,-60.423,998.9,4.25,-999.0,yes,yes,no,300234067173120,BD2GI,AOML,ARAON,South
2021-01-14T04:00:02Z,1610596803,2021,4,0,14.1667,14.1667,-57.895,-60.387,999.1,4.24,-999.0,yes,yes,no,300234067173120,BD2GI,AOML,ARAON,South
2021-01-14T04:59:57Z,1610600397,2021,5,0,14.2083,14.2083,-57.894,-60.351,998.8,4.24,-999.0,yes,yes,no,300234067173120,BD2GI,AOML,ARAON,South
2021-01-14T06:00:00Z,1610604000,2021,6,0,14.25,14.25,-57.897,-60.313,998.7,4.24,-999.0,yes,yes,no,300234067173120,BD2GI,AOML,ARAON,South
2021-01-14T07:00:02Z,1610607603,2021,7,0,14.2917,14.2917,-57.899,-60.271,998.7,4.24,-999.0,yes,yes,no,300234067173120,BD2GI,AOML,ARAON,South
2021-01-14T07:59:57Z,1610611197,2021,8,0,14.3333,14.3333,-57.902,-60.225,998.8,4.24,-999.0,yes,yes,no,300234067173120,BD2GI,AOML,ARAON,South
2021-01-14T09:00:00Z,1610614800,2021,9,0,14.375,14.375,-57.902,-60.175,998.7,4.24,-999.0,yes,yes,no,300234067173120,BD2GI,AOML,ARAON,South
2021-01-14T10:00:02Z,1610618403,2021,10,0,14.4167,14.4167,-57.9,-60.126,998.8,4.24,-999.0,yes,yes,no,300234067173120,BD2GI,AOML,ARAON,South
2021-01-14T10:59:57Z,1610621997,2021,11,0,14.4583,14.4583,-57.899,-60.076,998.8,4.24,-999.0,yes,yes,no,300234067173120,BD2GI,AOML,ARAON,South
2021-01-14T12:00:00Z,1610625600,2021,12,0,14.5,14.5,-57.896,-60.025,998.4,4.25,-999.0,yes,yes,no,300234067173120,BD2GI,AOML,ARAON,South
2021-01-14T13:00:02Z,1610629203,2021,13,0,14.5417,14.5417,-57.892,-59.978,998.3,4.25,-999.0,yes,yes,no,300234067173120,BD2GI,AOML,ARAON,South
2021-01-14T13:59:57Z,1610632797,2021,14,0,14.5833,14.5833,-57.89,-59.934,998.2,4.26,-999.0,yes,yes,no,300234067173120,BD2GI,AOML,ARAON,South
2021-01-14T15:00:00Z,1610636400,2021,15,0,14.625,14.625,-57.89,-59.891,998.5,4.25,-999.0,yes,yes,no,300234067173120,BD2GI,AOML,ARAON,South
2021-01-14T16:00:02Z,1610640003,2021,16,0,14.6667,14.6667,-57.887,-59.844,998.7,4.26,-999.0,yes,yes,no,300234067173120,BD2GI,AOML,ARAON,South
2021-01-14T16:59:57Z,1610643597,2021,17,0,14.7083,14.7083,-57.884,-59.798,998.9,4.27,-999.0,yes,yes,no,300234067173120,BD2GI,AOML,ARAON,South
2021-01-14T18:00:00Z,1610647200,2021,18,0,14.75,14.75,-57.881,-59.749,999.1,4.27,-999.0,yes,yes,no,300234067173120,BD2GI,AOML,ARAON,South
2021-01-14T19:00:02Z,1610650803,2021,19,0,14.7917,14.7917,-57.876,-59.704,999.8,4.28,-999.0,yes,yes,no,300234067173120,BD2GI,AOML,ARAON,South
2021-01-14T19:59:57Z,1610654397,2021,20,0,14.8333,14.8333,-57.871,-59.662,1000.6,4.29,-999.0,yes,yes,no,300234067173120,BD2GI,AOML,ARAON,South
2021-01-14T21:00:00Z,1610658000,2021,21,0,14.875,14.875,-57.864,-59.622,1001.4,4.28,-999.0,yes,yes,no,300234067173120,BD2GI,AOML,ARAON,South
2021-01-14T22:00:02Z,1610661603,2021,22,0,14.9167,14.9167,-57.857,-59.588,1002.2,4.27,-999.0,yes,yes,no,300234067173120,BD2GI,AOML,ARAON,South
2021-01-14T22:59:57Z,1610665197,2021,23,0,14.9583,14.9583,-57.851,-59.554,1002.9,4.26,-999.0,yes,yes,no,300234067173120,BD2GI,AOML,ARAON,South
2021-01-15T00:00:00Z,1610668800,2021,0,0,15.0,15.0,-57.848,-59.525,1003.5,4.25,-999.0,yes,yes,no,300234067173120,BD2GI,AOML,ARAON,South
2021-01-15T01:00:02Z,1610672403,2021,1,0,15.0417,15.0417,-57.846,-59.498,1004.1,4.24,-999.0,yes,yes,no,300234067173120,BD2GI,AOML,ARAON,South
2021-01-15T01:59:57Z,1610675997,2021,2,0,15.0833,15.0833,-57.845,-59.466,1004.5,4.24,-999.0,yes,yes,no,300234067173120,BD2GI,AOML,ARAON,South
2021-01-15T03:00:00Z,1610679600,2021,3,0,15.125,15.125,-57.844,-59.436,1005.2,4.23,-999.0,yes,yes,no,300234067173120,BD2GI,AOML,ARAON,South
2021-01-15T04:00:02Z,1610683203,2021,4,0,15.1667,15.1667,-57.845,-59.401,1005.7,4.22,-999.0,yes,yes,no,300234067173120,BD2GI,AOML,ARAON,South
2021-01-15T04:59:57Z,1610686797,2021,5,0,15.2083,15.2083,-57.846,-59.363,1006.0,4.21,-999.0,yes,yes,no,300234067173120,BD2GI,AOML,ARAON,South
2021-01-15T06:00:00Z,1610690400,2021,6,0,15.25,15.25,-57.847,-59.321,1006.3,4.21,-999.0,yes,yes,no,300234067173120,BD2GI,AOML,ARAON,South
2021-01-15T07:00:02Z,1610694003,2021,7,0,15.2917,15.2917,-57.846,-59.276,1006.9,4.2,-999.0,yes,yes,no,300234067173120,BD2GI,AOML,ARAON,South
2021-01-15T07:59:57Z,1610697597,2021,8,0,15.3333,15.3333,-57.843,-59.23,1007.6,4.21,-999.0,yes,yes,no,300234067173120,BD2GI,AOML,ARAON,South
2021-01-15T09:00:00Z,1610701200,2021,9,0,15.375,15.375,-57.836,-59.182,1008.3,4.2,-999.0,yes,yes,no,300234067173120,BD2GI,AOML,ARAON,South
2021-01-15T10:00:02Z,1610704803,2021,10,0,15.4167,15.4167,-57.826,-59.139,1009.0,4.19,-999.0,yes,yes,no,300234067173120,BD2GI,AOML,ARAON,South
2021-01-15T10:59:57Z,1610708397,2021,11,0,15.4583,15.4583,-57.815,-59.102,1009.5,4.2,-999.0,yes,yes,no,300234067173120,BD2GI,AOML,ARAON,South
2021-01-15T12:00:00Z,1610712000,2021,12,0,15.5,15.5,-57.803,-59.075,1010.0,4.2,-999.0,yes,yes,no,300234067173120,BD2GI,AOML,ARAON,South
2021-01-15T13:00:02Z,1610715603,2021,13,0,15.5417,15.5417,-57.792,-59.054,1010.4,4.21,-999.0,yes,yes,no,300234067173120,BD2GI,AOML,ARAON,South
2021-01-15T13:59:57Z,1610719197,2021,14,0,15.5833,15.5833,-57.785,-59.039,1011.2,4.21,-999.0,yes,yes,no,300234067173120,BD2GI,AOML,ARAON,South
2021-01-15T15:00:00Z,1610722800,2021,15,0,15.625,15.625,-57.782,-59.024,1011.9,4.23,-999.0,yes,yes,no,300234067173120,BD2GI,AOML,ARAON,South
2021-01-15T16:00:02Z,1610726403,2021,16,0,15.6667,15.6667,-57.784,-59.005,1012.1,4.24,-999.0,yes,yes,no,300234067173120,BD2GI,AOML,ARAON,South
2021-01-15T16:59:57Z,1610729997,2021,17,0,15.7083,15.7083,-57.788,-58.981,1012.5,4.26,-999.0,yes,yes,no,300234067173120,BD2GI,AOML,ARAON,South
2021-01-15T18:00:00Z,1610733600,2021,18,0,15.75,15.75,-57.793,-58.948,1013.1,4.27,-999.0,yes,yes,no,300234067173120,BD2GI,AOML,ARAON,South
2021-01-15T19:00:02Z,1610737203,2021,19,0,15.7917,15.7917,-57.796,-58.908,1013.2,4.29,-999.0,yes,yes,no,300234067173120,BD2GI,AOML,ARAON,South
2021-01-15T19:59:57Z,1610740797,2021,20,0,15.8333,15.8333,-57.798,-58.864,1013.4,4.29,-999.0,yes,yes,no,300234067173120,BD2GI,AOML,ARAON,South
2021-01-15T21:00:00Z,1610744400,2021,21,0,15.875,15.875,-57.796,-58.818,1013.5,4.3,-999.0,yes,yes,no,300234067173120,BD2GI,AOML,ARAON,South
2021-01-15T22:00:02Z,1610748003,2021,22,0,15.9167,15.9167,-57.791,-58.771,1014.0,4.29,-999.0,yes,yes,no,300234067173120,BD2GI,AOML,ARAON,South
2021-01-15T22:59:57Z,1610751597,2021,23,0,15.9583,15.9583,-57.783,-58.726,1014.0,4.29,-999.0,yes,yes,no,300234067173120,BD2GI,AOML,ARAON,South
2021-01-16T00:00:00Z,1610755200,2021,0,0,16.0,16.0,-57.773,-58.687,1014.3,4.27,-999.0,yes,yes,no,300234067173120,BD2GI,AOML,ARAON,South
2021-01-16T01:00:02Z,1610758803,2021,1,0,16.0417,16.0417,-57.762,-58.652,1014.3,4.28,-999.0,yes,yes,no,300234067173120,BD2GI,AOML,ARAON,South
2021-01-16T01:59:57Z,1610762397,2021,2,0,16.0833,16.0833,-57.75,-58.624,1014.3,4.27,-999.0,yes,yes,no,300234067173120,BD2GI,AOML,ARAON,South
2021-01-16T03:00:00Z,1610766000,2021,3,0,16.125,16.125,-57.739,-58.603,1014.1,4.27,-999.0,yes,yes,no,300234067173120,BD2GI,AOML,ARAON,South
2021-01-16T04:00:02Z,1610769603,2021,4,0,16.1667,16.1667,-57.729,-58.585,1013.9,4.26,-999.0,yes,yes,no,300234067173120,BD2GI,AOML,ARAON,South
2021-01-16T04:59:57Z,1610773197,2021,5,0,16.2083,16.2083,-57.722,-58.57,1013.6,4.26,-999.0,yes,yes,no,300234067173120,BD2GI,AOML,ARAON,South
2021-01-16T06:00:00Z,1610776800,2021,6,0,16.25,16.25,-57.719,-58.554,1013.2,4.26,-999.0,yes,yes,no,300234067173120,BD2GI,AOML,ARAON,South
2021-01-16T07:00:02Z,1610780403,2021,7,0,16.2917,16.2917,-57.718,-58.535,1012.6,4.26,-999.0,yes,yes,no,300234067173120,BD2GI,AOML,ARAON,South
2021-01-16T07:59:57Z,1610783997,2021,8,0,16.3333,16.3333,-57.721,-58.512,1012.4,4.26,-999.0,yes,yes,no,300234067173120,BD2GI,AOML,ARAON,South
2021-01-16T09:00:00Z,1610787600,2021,9,0,16.375,16.375,-57.723,-58.481,1012.2,4.26,-999.0,yes,yes,no,300234067173120,BD2GI,AOML,ARAON,South
2021-01-16T10:00:02Z,1610791203,2021,10,0,16.4167,16.4167,-57.726,-58.439,1011.6,4.27,-999.0,yes,yes,no,300234067173120,BD2GI,AOML,ARAON,South
2021-01-16T10:59:57Z,1610794797,2021,11,0,16.4583,16.4583,-57.725,-58.391,1011.1,4.29,-999.0,yes,yes,no,300234067173120,BD2GI,AOML,ARAON,South
2021-01-16T12:00:00Z,1610798400,2021,12,0,16.5,16.5,-57.719,-58.341,1010.5,4.26,-999.0,yes,yes,no,300234067173120,BD2GI,AOML,ARAON,South
2021-01-16T13:00:02Z,1610802003,2021,13,0,16.5417,16.5417,-57.709,-58.294,1010.1,4.27,-999.0,yes,yes,no,300234067173120,BD2GI,AOML,ARAON,South
2021-01-16T13:59:57Z,1610805597,2021,14,0,16.5833,16.5833,-57.697,-58.251,1009.6,4.28,-999.0,yes,yes,no,300234067173120,BD2GI,AOML,ARAON,South
2021-01-16T15:00:00Z,1610809200,2021,15,0,16.625,16.625,-57.683,-58.212,1009.3,4.29,-999.0,yes,yes,no,300234067173120,BD2GI,AOML,ARAON,South
2021-01-16T16:00:02Z,1610812803,2021,16,0,16.6667,16.6667,-57.669,-58.18,1009.1,4.31,-999.0,yes,yes,no,300234067173120,BD2GI,AOML,ARAON,South
2021-01-16T16:59:57Z,1610816397,2021,17,0,16.7083,16.7083,-57.655,-58.153,1008.8,4.34,-999.0,yes,yes,no,300234067173120,BD2GI,AOML,ARAON,South
2021-01-16T18:00:00Z,1610820000,2021,18,0,16.75,16.75,-57.642,-58.131,1008.8,4.34,-999.0,yes,yes,no,300234067173120,BD2GI,AOML,ARAON,South
2021-01-16T19:00:02Z,1610823603,2021,19,0,16.7917,16.7917,-57.633,-58.112,1008.6,4.33,-999.0,yes,yes,no,300234067173120,BD2GI,AOML,ARAON,South
2021-01-16T19:59:57Z,1610827197,2021,20,0,16.8333,16.8333,-57.626,-58.092,1008.1,4.34,-999.0,yes,yes,no,300234067173120,BD2GI,AOML,ARAON,South
2021-01-16T21:00:00Z,1610830800,2021,21,0,16.875,16.875,-57.622,-58.069,1007.8,4.33,-999.0,yes,yes,no,300234067173120,BD2GI,AOML,ARAON,South
2021-01-16T22:00:02Z,1610834403,2021,22,0,16.9167,16.9167,-57.62,-58.042,1007.6,4.31,-999.0,yes,yes,no,300234067173120,BD2GI,AOML,ARAON,South
2021-01-16T22:59:57Z,1610837997,2021,23,0,16.9583,16.9583,-57.618,-58.012,1007.3,4.31,-999.0,yes,yes,no,300234067173120,BD2GI,AOML,ARAON,South
2021-01-17T00:00:00Z,1610841600,2021,0,0,17.0,17.0,-57.617,-57.977,1006.8,4.3,-999.0,yes,yes,no,300234067173120,BD2GI,AOML,ARAON,South
2021-01-17T01:00:02Z,1610845203,2021,1,0,17.0417,17.0417,-57.612,-57.937,1006.2,4.29,-999.0,yes,yes,no,300234067173120,BD2GI,AOML,ARAON,South
2021-01-17T01:59:57Z,1610848797,2021,2,0,17.0833,17.0833,-57.602,-57.892,1005.8,4.28,-999.0,yes,yes,no,300234067173120,BD2GI,AOML,ARAON,South
2021-01-17T03:00:00Z,1610852400,2021,3,0,17.125,17.125,-57.59,-57.851,1005.6,4.28,-999.0,yes,yes,no,300234067173120,BD2GI,AOML,ARAON,South
2021-01-17T04:00:02Z,1610856003,2021,4,0,17.1667,17.1667,-57.576,-57.815,1004.9,4.28,-999.0,yes,yes,no,300234067173120,BD2GI,AOML,ARAON,South
2021-01-17T04:59:57Z,1610859597,2021,5,0,17.2083,17.2083,-57.562,-57.782,1004.2,4.28,-999.0,yes,yes,no,300234067173120,BD2GI,AOML,ARAON,South
2021-01-17T06:00:00Z,1610863200,2021,6,0,17.25,17.25,-57.546,-57.756,1003.7,4.28,-999.0,yes,yes,no,300234067173120,BD2GI,AOML,ARAON,South
2021-01-17T07:00:02Z,1610866803,2021,7,0,17.2917,17.2917,-57.531,-57.732,1003.3,4.29,-999.0,yes,yes,no,300234067173120,BD2GI,AOML,ARAON,South
2021-01-17T07:59:57Z,1610870397,2021,8,0,17.3333,17.3333,-57.517,-57.714,1003.0,4.29,-999.0,yes,yes,no,300234067173120,BD2GI,AOML,ARAON,South
2021-01-17T09:00:00Z,1610874000,2021,9,0,17.375,17.375,-57.505,-57.699,1002.8,4.29,-999.0,yes,yes,no,300234067173120,BD2GI,AOML,ARAON,South
2021-01-17T10:00:02Z,1610877603,2021,10,0,17.4167,17.4167,-57.495,-57.682,1002.4,4.29,-999.0,yes,yes,no,300234067173120,BD2GI,AOML,ARAON,South
2021-01-17T10:59:57Z,1610881197,2021,11,0,17.4583,17.4583,-57.488,-57.667,1002.0,4.3,-999.0,yes,yes,no,300234067173120,BD2GI,AOML,ARAON,South
2021-01-17T12:00:00Z,1610884800,2021,12,0,17.5,17.5,-57.484,-57.642,1001.7,4.32,-999.0,yes,yes,no,300234067173120,BD2GI,AOML,ARAON,South
2021-01-17T13:00:02Z,1610888403,2021,13,0,17.5417,17.5417,-57.477,-57.616,1001.4,4.33,-999.0,yes,yes,no,300234067173120,BD2GI,AOML,ARAON,South
2021-01-17T13:59:57Z,1610891997,2021,14,0,17.5833,17.5833,-57.47,-57.587,1001.1,4.36,-999.0,yes,yes,no,300234067173120,BD2GI,AOML,ARAON,South
2021-01-17T15:00:00Z,1610895600,2021,15,0,17.625,17.625,-57.461,-57.56,1000.8,4.38,-999.0,yes,yes,no,300234067173120,BD2GI,AOML,ARAON,South
2021-01-17T16:00:02Z,1610899203,2021,16,0,17.6667,17.6667,-57.451,-57.533,1000.4,4.43,-999.0,yes,yes,no,300234067173120,BD2GI,AOML,ARAON,South
2021-01-17T16:59:57Z,1610902797,2021,17,0,17.7083,17.7083,-57.44,-57.505,999.5,4.5,-999.0,yes,yes,no,300234067173120,BD2GI,AOML,ARAON,South
2021-01-17T18:00:00Z,1610906400,2021,18,0,17.75,17.75,-57.428,-57.477,999.3,4.52,-999.0,yes,yes,no,300234067173120,BD2GI,AOML,ARAON,South
2021-01-17T19:00:02Z,1610910003,2021,19,0,17.7917,17.7917,-57.416,-57.451,998.7,4.54,-999.0,yes,yes,no,300234067173120,BD2GI,AOML,ARAON,South
2021-01-17T19:59:57Z,1610913597,2021,20,0,17.8333,17.8333,-57.403,-57.43,998.3,4.58,-999.0,yes,yes,no,300234067173120,BD2GI,AOML,ARAON,South
2021-01-17T21:00:00Z,1610917200,2021,21,0,17.875,17.875,-57.39,-57.41,998.1,4.58,-999.0,yes,yes,no,300234067173120,BD2GI,AOML,ARAON,South
2021-01-17T22:00:02Z,1610920803,2021,22,0,17.9167,17.9167,-57.377,-57.393,997.6,4.59,-999.0,yes,yes,no,300234067173120,BD2GI,AOML,ARAON,South
2021-01-17T22:59:57Z,1610924397,2021,23,0,17.9583,17.9583,-57.365,-57.378,996.9,4.58,-999.0,yes,yes,no,300234067173120,BD2GI,AOML,ARAON,South
2021-01-18T00:00:00Z,1610928000,2021,0,0,18.0,18.0,-57.358,-57.362,996.2,4.58,-999.0,yes,yes,no,300234067173120,BD2GI,AOML,ARAON,South
2021-01-18T01:00:02Z,1610931603,2021,1,0,18.0417,18.0417,-57.349,-57.344,995.7,4.56,-999.0,yes,yes,no,300234067173120,BD2GI,AOML,ARAON,South
2021-01-18T01:59:57Z,1610935197,2021,2,0,18.0833,18.0833,-57.34,-57.326,995.5,4.56,-999.0,yes,yes,no,300234067173120,BD2GI,AOML,ARAON,South
2021-01-18T03:00:00Z,1610938800,2021,3,0,18.125,18.125,-57.331,-57.309,995.2,4.56,-999.0,yes,yes,no,300234067173120,BD2GI,AOML,ARAON,South
2021-01-18T04:00:02Z,1610942403,2021,4,0,18.1667,18.1667,-57.321,-57.292,994.4,4.55,-999.0,yes,yes,no,300234067173120,BD2GI,AOML,ARAON,South
2021-01-18T04:59:57Z,1610945997,2021,5,0,18.2083,18.2083,-57.312,-57.277,994.0,4.54,-999.0,yes,yes,no,300234067173120,BD2GI,AOML,ARAON,South
2021-01-18T06:00:00Z,1610949600,2021,6,0,18.25,18.25,-57.303,-57.259,993.5,4.55,-999.0,yes,yes,no,300234067173120,BD2GI,AOML,ARAON,South
2021-01-18T07:00:02Z,1610953203,2021,7,0,18.2917,18.2917,-57.294,-57.239,992.9,4.53,-999.0,yes,yes,no,300234067173120,BD2GI,AOML,ARAON,South
2021-01-18T07:59:57Z,1610956797,2021,8,0,18.3333,18.3333,-57.286,-57.218,993.1,4.53,-999.0,yes,yes,no,300234067173120,BD2GI,AOML,ARAON,South
2021-01-18T09:00:00Z,1610960400,2021,9,0,18.375,18.375,-57.274,-57.196,993.3,4.54,-999.0,yes,yes,no,300234067173120,BD2GI,AOML,ARAON,South
2021-01-18T10:00:02Z,1610964003,2021,10,0,18.4167,18.4167,-57.262,-57.176,993.2,4.56,-999.0,yes,yes,no,300234067173120,BD2GI,AOML,ARAON,South
2021-01-18T10:59:57Z,1610967597,2021,11,0,18.4583,18.4583,-57.249,-57.159,993.1,4.6,-999.0,yes,yes,no,300234067173120,BD2GI,AOML,ARAON,South
2021-01-18T12:00:00Z,1610971200,2021,12,0,18.5,18.5,-57.235,-57.144,993.3,4.64,-999.0,yes,yes,no,300234067173120,BD2GI,AOML,ARAON,South
2021-01-18T13:00:02Z,1610974803,2021,13,0,18.5417,18.5417,-57.222,-57.134,993.5,4.64,-999.0,yes,yes,no,300234067173120,BD2GI,AOML,ARAON,South
2021-01-18T13:59:57Z,1610978397,2021,14,0,18.5833,18.5833,-57.209,-57.125,993.8,4.73,-999.0,yes,yes,no,300234067173120,BD2GI,AOML,ARAON,South
2021-01-18T15:00:00Z,1610982000,2021,15,0,18.625,18.625,-57.199,-57.118,994.3,4.76,-999.0,yes,yes,no,300234067173120,BD2GI,AOML,ARAON,South
2021-01-18T16:00:02Z,1610985603,2021,16,0,18.6667,18.6667,-57.19,-57.111,994.5,4.75,-999.0,yes,yes,no,300234067173120,BD2GI,AOML,ARAON,South
2021-01-18T16:59:57Z,1610989197,2021,17,0,18.7083,18.7083,-57.183,-57.102,994.9,4.75,-999.0,yes,yes,no,300234067173120,BD2GI,AOML,ARAON,South
2021-01-18T18:00:00Z,1610992800,2021,18,0,18.75,18.75,-57.178,-57.09,995.2,4.78,-999.0,yes,yes,no,300234067173120,BD2GI,AOML,ARAON,South
2021-01-18T19:00:02Z,1610996403,2021,19,0,18.7917,18.7917,-57.172,-57.074,995.7,4.79,-999.0,yes,yes,no,300234067173120,BD2GI,AOML,ARAON,South
2021-01-18T19:59:57Z,1610999997,2021,20,0,18.8333,18.8333,-57.162,-57.056,996.0,4.84,-999.0,yes,yes,no,300234067173120,BD2GI,AOML,ARAON,South
2021-01-18T21:00:00Z,1611003600,2021,21,0,18.875,18.875,-57.149,-57.037,996.3,4.86,-999.0,yes,yes,no,300234067173120,BD2GI,AOML,ARAON,South
2021-01-18T22:00:02Z,1611007203,2021,22,0,18.9167,18.9167,-57.136,-57.023,996.6,4.87,-999.0,yes,yes,no,300234067173120,BD2GI,AOML,ARAON,South
2021-01-18T22:59:57Z,1611010797,2021,23,0,18.9583,18.9583,-57.122,-57.015,996.8,4.87,-999.0,yes,yes,no,300234067173120,BD2GI,AOML,ARAON,South
2021-01-19T00:00:00Z,1611014400,2021,0,0,19.0,19.0,-57.108,-57.011,996.9,4.87,-999.0,yes,yes,no,300234067173120,BD2GI,AOML,ARAON,South
2021-01-19T01:00:02Z,1611018003,2021,1,0,19.0417,19.0417,-57.097,-57.011,997.0,4.86,-999.0,yes,yes,no,300234067173120,BD2GI,AOML,ARAON,South
2021-01-19T01:59:57Z,1611021597,2021,2,0,19.0833,19.0833,-57.086,-57.009,997.3,4.85,-999.0,yes,yes,no,300234067173120,BD2GI,AOML,ARAON,South
2021-01-19T03:00:00Z,1611025200,2021,3,0,19.125,19.125,-57.077,-57.006,997.6,4.85,-999.0,yes,yes,no,300234067173120,BD2GI,AOML,ARAON,South
2021-01-19T04:00:02Z,1611028803,2021,4,0,19.1667,19.1667,-57.068,-57.004,997.9,4.84,-999.0,yes,yes,no,300234067173120,BD2GI,AOML,ARAON,South
2021-01-19T04:59:57Z,1611032397,2021,5,0,19.2083,19.2083,-57.059,-56.999,998.2,4.8,-999.0,yes,yes,no,300234067173120,BD2GI,AOML,ARAON,South
2021-01-19T06:00:00Z,1611036000,2021,6,0,19.25,19.25,-57.05,-56.992,998.6,4.76,-999.0,yes,yes,no,300234067173120,BD2GI,AOML,ARAON,South
2021-01-19T07:00:02Z,1611039603,2021,7,0,19.2917,19.2917,-57.043,-56.981,999.0,4.68,-999.0,yes,yes,no,300234067173120,BD2GI,AOML,ARAON,South
2021-01-19T07:59:57Z,1611043197,2021,8,0,19.3333,19.3333,-57.033,-56.969,999.8,4.66,-999.0,yes,yes,no,300234067173120,BD2GI,AOML,ARAON,South
2021-01-19T09:00:00Z,1611046800,2021,9,0,19.375,19.375,-57.022,-56.958,1000.4,4.64,-999.0,yes,yes,no,300234067173120,BD2GI,AOML,ARAON,South
2021-01-19T10:00:02Z,1611050403,2021,10,0,19.4167,19.4167,-57.008,-56.95,1000.8,4.63,-999.0,yes,yes,no,300234067173120,BD2GI,AOML,ARAON,South
2021-01-19T10:59:57Z,1611053997,2021,11,0,19.4583,19.4583,-56.994,-56.947,1001.2,4.65,-999.0,yes,yes,no,300234067173120,BD2GI,AOML,ARAON,South
2021-01-19T12:00:00Z,1611057600,2021,12,0,19.5,19.5,-56.981,-56.947,1001.4,4.68,-999.0,yes,yes,no,300234067173120,BD2GI,AOML,ARAON,South
2021-01-19T13:00:02Z,1611061203,2021,13,0,19.5417,19.5417,-56.969,-56.949,1001.3,4.69,-999.0,yes,yes,no,300234067173120,BD2GI,AOML,ARAON,South
2021-01-19T13:59:57Z,1611064797,2021,14,0,19.5833,19.5833,-56.959,-56.951,1001.9,4.72,-999.0,yes,yes,no,300234067173120,BD2GI,AOML,ARAON,South
2021-01-19T15:00:00Z,1611068400,2021,15,0,19.625,19.625,-56.95,-56.95,1002.5,4.78,-999.0,yes,yes,no,300234067173120,BD2GI,AOML,ARAON,South
2021-01-19T16:00:02Z,1611072003,2021,16,0,19.6667,19.6667,-56.94,-56.947,1002.9,5.01,-999.0,yes,yes,no,300234067173120,BD2GI,AOML,ARAON,South
2021-01-19T16:59:57Z,1611075597,2021,17,0,19.7083,19.7083,-56.931,-56.948,1003.6,4.93,-999.0,yes,yes,no,300234067173120,BD2GI,AOML,ARAON,South
2021-01-19T18:00:00Z,1611079200,2021,18,0,19.75,19.75,-56.923,-56.948,1004.4,4.9,-999.0,yes,yes,no,300234067173120,BD2GI,AOML,ARAON,South
2021-01-19T19:00:02Z,1611082803,2021,19,0,19.7917,19.7917,-56.916,-56.942,1005.2,4.89,-999.0,yes,yes,no,300234067173120,BD2GI,AOML,ARAON,South
2021-01-19T19:59:57Z,1611086397,2021,20,0,19.8333,19.8333,-56.907,-56.938,1005.8,4.9,-999.0,yes,yes,no,300234067173120,BD2GI,AOML,ARAON,South
2021-01-19T21:00:00Z,1611090000,2021,21,0,19.875,19.875,-56.898,-56.934,1006.4,4.89,-999.0,yes,yes,no,300234067173120,BD2GI,AOML,ARAON,South
2021-01-19T22:00:02Z,1611093603,2021,22,0,19.9167,19.9167,-56.886,-56.932,1006.9,4.87,-999.0,yes,yes,no,300234067173120,BD2GI,AOML,ARAON,South
2021-01-19T22:59:57Z,1611097197,2021,23,0,19.9583,19.9583,-56.875,-56.928,1007.7,4.87,-999.0,yes,yes,no,300234067173120,BD2GI,AOML,ARAON,South
2021-01-20T00:00:00Z,1611100800,2021,0,0,20.0,20.0,-56.863,-56.93,1008.0,4.84,-999.0,yes,yes,no,300234067173120,BD2GI,AOML,ARAON,South
2021-01-20T01:00:02Z,1611104403,2021,1,0,20.0417,20.0417,-56.85,-56.932,1008.4,4.83,-999.0,yes,yes,no,300234067173120,BD2GI,AOML,ARAON,South
2021-01-20T01:59:57Z,1611107997,2021,2,0,20.0833,20.0833,-56.84,-56.935,1008.7,4.77,-999.0,yes,yes,no,300234067173120,BD2GI,AOML,ARAON,South
2021-01-20T03:00:00Z,1611111600,2021,3,0,20.125,20.125,-56.831,-56.942,1009.4,4.72,-999.0,yes,yes,no,300234067173120,BD2GI,AOML,ARAON,South
2021-01-20T04:00:02Z,1611115203,2021,4,0,20.1667,20.1667,-56.821,-56.945,1009.4,4.7,-999.0,yes,yes,no,300234067173120,BD2GI,AOML,ARAON,South
2021-01-20T04:59:57Z,1611118797,2021,5,0,20.2083,20.2083,-56.812,-56.951,1009.6,4.7,-999.0,yes,yes,no,300234067173120,BD2GI,AOML,ARAON,South
2021-01-20T06:00:00Z,1611122400,2021,6,0,20.25,20.25,-56.803,-56.956,1009.4,4.68,-999.0,yes,yes,no,300234067173120,BD2GI,AOML,ARAON,South
2021-01-20T07:00:02Z,1611126003,2021,7,0,20.2917,20.2917,-56.793,-56.957,1009.3,4.67,-999.0,yes,yes,no,300234067173120,BD2GI,AOML,ARAON,South
2021-01-20T07:59:57Z,1611129597,2021,8,0,20.3333,20.3333,-56.786,-56.961,1009.0,4.65,-999.0,yes,yes,no,300234067173120,BD2GI,AOML,ARAON,South
2021-01-20T09:00:00Z,1611133200,2021,9,0,20.375,20.375,-56.78,-56.963,1008.9,4.65,-999.0,yes,yes,no,300234067173120,BD2GI,AOML,ARAON,South